Home > Weather > Sitka > Past weeks

Flag for USA Past Weather in Sitka, Alaska, USA — Yesterday and Last 2 Weeks

Now
55 °F

Overcast.


Feels Like: 54 °F
Forecast: 46 / 58 °F
Wind: 6 mph from Northwest

Location: Sitka Airport

Current Time: May 29, 2016 at 1:07:57 PM

Latest Report: May 29, 2016 at 11:53 AM


Visibility: 10 mi

Pressure: 29.99 "Hg

Humidity: 77%

Dew Point: 48 °F

Location of SitkaLocation

Past Weather in Sitka — Graph

°F

Sitka Temperature Yesterday

Maximum temperature yesterday: 56 °F (at 2:53 PM)
Minimum temperature yesterday: 45 °F (at 3:01 AM)
Average temperature yesterday: 50 °F

High & Low Weather Summary for the Past Weeks

 TemperatureHumidityPressure
High77 °F (May 14, 2:53 PM)97% (May 28, 7:53 AM)30.24 "Hg (May 28, 7:53 AM)
Low42 °F (May 19, 3:53 AM)15% (May 14, 2:53 PM)29.73 "Hg (May 17, 6:53 AM)
Average51 °F77%29.99 "Hg
* Reported May 14 11:53 AM — May 29 11:04 AM, Sitka, Weather by CustomWeather, © 2016

Note: Actual official high and low records may vary slightly from our data, if they occured in-between our weather recording intervals... More about our weather records

Advertising

Sitka Weather History for the Previous 24 Hours

Scroll right to see more
 ConditionsComfort  
Time TempWeatherWind HumidityBarometerVisibility
11:04 AM
Sun, May 29
54 °FOvercast.5 mph74%29.99 "Hg10 mi
10:53 AM54 °FOvercast.No wind74%29.98 "Hg10 mi
9:53 AM53 °FOvercast.No wind77%29.97 "Hg10 mi
8:53 AM51 °FFog.No wind89%29.96 "Hg5 mi
7:53 AM50 °FFog.No wind93%29.95 "Hg3 mi
6:53 AM50 °FFog.No wind93%29.94 "Hg1 mi
5:53 AM49 °FFog.No wind90%29.94 "Hg1 mi
4:53 AM49 °FLow clouds.No wind93%29.93 "Hg10 mi
3:53 AM49 °FLow clouds.No wind90%29.93 "Hg10 mi
2:53 AM48 °FPassing clouds.No wind89%29.93 "Hg10 mi
1:53 AM48 °FLow clouds.No wind89%29.93 "Hg10 mi
1:03 AM48 °FPassing clouds.No wind89%29.93 "Hg10 mi
12:00 AM49 °FLow clouds.No wind86%29.93 "Hg10 mi
10:53 PM
Sat, May 28
49 °FPassing clouds.5 mph90%29.93 "Hg10 mi
9:53 PM52 °FSunny.No wind83%29.93 "Hg10 mi
8:53 PM52 °FPartly sunny.No wind83%29.93 "Hg10 mi
7:53 PM53 °FScattered clouds.3 mph83%29.93 "Hg10 mi
6:53 PM53 °FScattered clouds.No wind83%29.93 "Hg10 mi
5:53 PM52 °FPartly sunny.No wind86%29.93 "Hg10 mi
4:53 PM52 °FLight rain. Mostly cloudy.No wind86%29.94 "Hg10 mi
3:53 PM55 °FPartly sunny.3 mph77%29.94 "Hg10 mi
2:53 PM56 °FBroken clouds.5 mph75%29.94 "Hg10 mi
1:53 PM54 °FPartly sunny.7 mph77%29.93 "Hg10 mi
Weather by CustomWeather, © 2016

See weather overviewHow to use our weather pages